Location: Rancho Del Sol Observatory
(38.7214°N, 120.6350°W)
Time: 22:43:23
(UTC-08:00)

Explorer 11/Cluster Stage 4 - All Passes

Search period start: 23 January 2020 00:00
Search period end: 02 February 2020 00:00
Orbit: 467 x 1259 km, 28.8° (Epoch: 23 January)

Date Brightness Start Highest point End Pass type
(mag) Time Alt. Az. Time Alt. Az. Time Alt. Az.
23 Jan - 12:44:41 10° S 12:49:03 15° SSE 12:53:18 10° ESE daylight
23 Jan - 14:30:43 10° SW 14:37:28 30° SSE 14:43:35 10° ESE daylight
23 Jan - 16:19:08 10° WSW 16:26:02 37° S 16:31:54 10° ESE daylight
23 Jan - 18:08:35 10° WSW 18:14:18 28° SSW 18:19:07 10° SE visible
23 Jan - 20:00:22 10° SW 20:01:54 11° SSW 20:03:22 10° SSW visible
24 Jan - 12:33:00 10° SSW 12:38:03 18° SSE 12:43:00 10° ESE daylight
24 Jan - 14:19:29 10° SW 14:26:31 32° SSE 14:32:57 10° ESE daylight
24 Jan - 16:08:03 10° WSW 16:15:08 38° S 16:21:14 10° ESE daylight
24 Jan - 17:57:36 10° WSW 18:03:25 27° SSW 18:08:22 10° SE visible
24 Jan - 19:50:35 10° SW 19:51:01 10° SSW 19:51:27 10° SSW visible
25 Jan - 12:21:29 10° SSW 12:27:02 20° SSE 12:32:32 10° ESE daylight
25 Jan - 14:08:20 10° SW 14:15:33 35° S 14:22:15 10° ESE daylight
25 Jan - 15:56:59 10° WSW 16:04:13 38° S 16:10:32 10° ESE daylight
25 Jan - 17:46:39 10° WSW 17:52:32 26° SSW 17:57:35 10° SE visible
26 Jan - 12:10:07 10° SSW 12:16:01 22° SSE 12:21:57 10° ESE daylight
26 Jan - 13:57:13 10° SW 14:04:34 37° S 14:11:31 10° ESE daylight
26 Jan - 15:45:56 10° WSW 15:53:17 39° S 15:59:47 10° ESE daylight
26 Jan - 17:35:42 10° WSW 17:41:36 25° SSW 17:46:45 10° SSE visible
27 Jan - 11:58:50 10° SSW 12:05:00 24° SSE 12:11:16 10° ESE daylight
27 Jan - 13:46:08 10° WSW 13:53:35 38° S 14:00:44 10° ESE daylight
27 Jan - 15:34:55 10° WSW 15:42:20 38° S 15:48:59 10° ESE daylight
27 Jan - 17:24:48 10° WSW 17:30:40 24° SSW 17:35:50 10° SSE daylight
28 Jan - 10:05:51 10° SSE 10:05:57 10° SE 10:06:03 10° SE daylight
28 Jan - 11:47:40 10° SSW 11:53:58 26° SSE 12:00:31 10° ESE daylight
28 Jan - 13:35:07 10° WSW 13:42:35 40° S 13:49:54 10° ESE daylight
28 Jan - 15:23:56 10° WSW 15:31:21 38° S 15:38:09 10° SE daylight
28 Jan - 17:13:56 10° WSW 17:19:41 22° SSW 17:24:52 10° SSE daylight
29 Jan - 09:52:36 10° SSE 09:54:56 12° SSE 09:57:20 10° SE daylight
29 Jan - 11:36:34 10° SW 11:42:57 28° SSE 11:49:42 10° ESE daylight
29 Jan - 13:24:08 10° WSW 13:31:35 41° S 13:39:02 10° ESE daylight
29 Jan - 15:12:59 10° WSW 15:20:22 37° S 15:27:16 10° SE daylight
29 Jan - 17:03:07 10° WSW 17:08:42 21° SSW 17:13:48 10° SSE daylight
30 Jan - 09:40:49 10° S 09:43:54 13° SSE 09:47:10 10° ESE daylight
30 Jan - 11:25:32 10° SW 11:31:56 30° SSE 11:38:51 10° ESE daylight
30 Jan - 13:13:12 10° WSW 13:20:36 41° S 13:28:08 10° ESE daylight
30 Jan - 15:02:04 10° WSW 15:09:22 36° SSW 15:16:20 10° SE daylight
30 Jan - 16:52:22 10° WSW 16:57:41 19° SSW 17:02:39 10° SSE daylight
31 Jan - 09:29:21 10° S 09:32:55 15° SSE 09:36:43 10° ESE daylight
31 Jan - 11:14:35 10° SW 11:20:57 32° SSE 11:27:56 10° ESE daylight
31 Jan - 13:02:19 10° WSW 13:09:36 41° S 13:17:11 10° ESE daylight
31 Jan - 14:51:11 10° WSW 14:58:22 34° SSW 15:05:21 10° SE daylight
31 Jan - 16:41:41 10° WSW 16:46:40 18° SSW 16:51:23 10° S daylight
01 Feb - 09:18:06 10° S 09:21:56 16° SSE 09:26:07 10° ESE daylight
01 Feb - 11:03:41 10° SW 11:09:58 33° SSE 11:16:59 10° ESE daylight
01 Feb - 12:51:27 10° WSW 12:58:37 41° S 13:06:12 10° ESE daylight
01 Feb - 14:40:20 10° WSW 14:47:21 32° SSW 14:54:17 10° SE daylight
01 Feb - 16:31:09 10° WSW 16:35:38 16° SSW 16:39:58 10° S daylight
